GEFSMW_500_meanwind_192.txt.gz
Wind_Speed
13 12 12 11 11 11 11 10 9 8 8 8 7 7 6 6 6 6 6 6 6 6 6 6 7 7 7 7 7 6 6 6 6 7 7 7 6 6 6 6 6 7 7
14 13 12 12 12 12 12 11 10 9 9 8 7 7 7 7 7 6 6 6 6 7 7 7 7 8 7 7 7 6 6 6 7 7 7 7 7 7 7 7 7 7 8
16 15 15 14 13 13 12 12 11 10 9 9 8 8 7 7 7 6 6 7 7 7 7 7 7 7 7 7 7 7 7 7 7 8 8 8 8 8 8 8 8 9 9
16 15 15 14 14 13 13 12 11 10 10 9 9 9 8 8 7 7 7 7 7 7 7 7 7 7 7 7 7 7 7 8 8 8 8 9 9 9 10 9 9 9 10
15 15 15 14 14 13 12 12 12 11 11 10 10 9 9 9 8 8 8 8 7 7 7 8 8 8 7 7 7 8 9 9 9 9 9 10 10 10 10 11 11 10 11
15 15 14 13 13 13 13 12 12 11 11 11 10 10 9 9 9 9 8 8 8 8 8 8 8 8 9 9 9 9 10 10 10 10 11 11 11 11 11 11 12 12 12
14 14 14 14 14 13 13 12 12 12 11 11 10 10 10 10 10 10 9 9 9 9 10 9 10 10 10 10 10 10 10 10 11 11 11 12 12 12 12 12 12 12 12
14 14 14 14 14 13 13 13 12 12 12 11 11 11 10 10 10 10 10 10 10 11 11 11 11 12 11 11 11 11 11 11 12 12 13 13 13 13 13 13 13 12 13
13 13 14 14 14 13 13 13 12 12 11 11 11 11 11 11 11 11 11 12 12 12 12 13 13 13 13 13 12 13 13 13 13 13 14 14 14 14 14 14 14 14 14
13 13 13 13 13 13 12 12 11 11 12 11 11 12 11 11 12 12 13 13 13 13 14 14 14 14 14 14 14 14 15 15 15 15 15 15 15 15 15 16 16 16 16
12 12 13 13 13 13 13 12 12 12 12 12 12 12 12 12 13 13 14 14 14 14 15 15 15 15 15 16 16 16 16 17 17 17 17 16 16 16 16 17 17 18 18
13 13 13 13 14 14 13 13 13 13 13 13 13 13 13 14 14 14 15 15 15 15 16 16 16 16 16 17 17 17 17 18 18 18 18 18 18 18 18 18 19 19 19
13 13 13 13 13 14 14 14 14 14 13 13 13 13 14 15 15 16 16 16 16 17 17 17 17 18 18 18 18 18 18 19 19 19 20 19 19 20 20 21 21 21 21
12 13 13 13 13 13 14 14 14 14 14 14 14 15 15 15 16 17 17 18 18 18 18 19 18 18 18 18 18 18 19 19 20 20 20 21 21 21 22 22 22 22 23
13 13 13 14 14 14 15 15 15 15 15 15 15 16 16 16 16 17 18 18 18 19 19 19 19 18 19 19 19 19 19 20 21 21 22 22 23 23 23 24 24 24 25
14 15 15 15 15 15 15 15 15 15 15 15 15 16 16 17 17 18 18 18 19 19 19 19 20 20 20 20 21 21 21 22 22 22 22 23 24 24 24 25 25 26 26
15 15 16 16 15 15 15 15 15 15 16 16 16 16 17 17 18 18 19 19 19 19 19 20 20 21 22 22 22 23 23 23 23 23 24 24 25 25 26 26 27 27 28
15 15 16 16 16 16 15 15 15 16 16 16 17 17 17 18 18 18 19 19 20 20 21 21 21 21 22 22 22 22 22 23 24 24 24 25 26 27 27 28 28 28 29
16 16 17 17 17 16 16 16 17 16 17 17 17 17 18 18 19 19 19 20 21 21 22 22 22 22 22 22 23 23 23 24 25 26 26 26 27 27 28 29 29 30 30
17 17 17 17 17 17 17 17 18 18 17 17 17 18 19 19 20 20 21 21 22 22 23 23 23 23 23 24 24 24 24 25 25 26 27 27 28 28 29 30 31 31 32
16 17 17 18 17 18 19 19 18 18 17 17 18 18 19 19 20 21 22 22 23 23 23 23 23 24 24 24 25 25 25 26 27 27 28 29 30 31 31 32 33 34 35
16 16 17 18 18 18 19 20 19 19 19 18 19 19 19 20 21 22 22 23 23 23 24 24 25 25 25 26 26 27 27 28 29 29 30 31 32 33 34 34 35 36 37
15 15 16 17 18 18 19 19 20 20 20 20 20 20 21 22 23 23 23 24 24 24 25 26 26 27 27 28 29 29 30 30 31 31 32 33 34 35 35 36 37 38 39
15 16 17 17 18 19 19 19 19 19 20 21 22 22 23 23 23 24 24 25 26 26 27 27 28 28 29 30 30 31 32 32 33 34 34 35 36 37 38 39 40 41 42
18 18 18 19 19 19 20 20 20 21 22 23 23 23 23 24 24 25 26 27 27 28 29 29 30 30 31 32 33 33 34 35 36 36 37 37 38 39 40 41 42 43 44
20 20 20 20 21 22 22 23 23 22 23 24 24 25 25 25 26 27 28 28 29 30 31 31 32 32 33 34 35 35 36 37 37 38 39 39 40 41 42 43 44 44 45

GEFSMW_500_meanwind_198.txt.gz
Wind_Speed
14 14 14 14 14 13 12 11 11 11 10 9 9 8 8 8 8 7 6 5 5 5 5 6 5 5 6 6 5 5 5 5 5 6 6 6 7 7 7 7 8 8 8
15 14 14 14 14 14 13 12 12 12 11 10 9 8 8 8 8 7 7 6 6 6 6 6 6 6 6 6 6 6 6 6 6 7 7 7 7 7 7 8 8 8 8
15 14 14 14 14 14 13 13 12 12 11 10 9 9 9 9 8 8 7 7 7 7 7 6 6 6 6 6 6 7 7 7 7 7 8 8 8 8 8 8 9 9 9
15 15 15 15 14 14 14 13 12 12 12 11 10 10 10 9 9 8 8 8 7 7 7 7 7 7 7 7 7 8 8 8 8 8 8 9 9 9 9 9 9 10 10
15 15 15 15 15 14 14 14 13 13 12 11 11 10 10 10 10 9 9 8 8 8 8 8 8 8 8 8 8 8 8 8 9 9 9 9 9 10 10 10 10 10 10
15 16 16 15 15 14 14 13 13 12 12 11 11 11 10 10 10 10 9 9 9 9 9 9 9 8 9 9 9 9 9 9 10 10 10 10 10 10 11 11 11 11 11
15 16 16 15 14 14 13 13 13 12 11 11 11 11 11 11 11 10 10 10 9 10 10 10 10 10 10 10 10 10 10 11 11 11 11 12 12 12 12 12 12 12 12
14 14 14 15 14 13 13 12 12 12 12 12 11 11 11 11 11 11 10 10 10 11 11 11 11 11 11 11 11 11 11 12 12 13 13 13 13 13 13 12 12 12 13
13 13 13 13 13 13 13 12 12 12 12 12 12 12 12 12 11 11 11 11 12 12 11 11 11 11 11 12 12 12 13 13 13 13 13 14 14 14 13 13 13 14 14
12 13 13 13 13 13 13 13 13 13 13 12 12 12 12 12 11 11 12 12 12 12 12 12 12 12 12 12 13 13 13 14 14 14 14 14 14 14 14 14 14 15 15
12 13 13 13 13 13 13 13 13 13 13 12 13 13 13 12 12 12 12 12 12 12 13 13 12 13 13 14 14 14 15 15 15 15 15 15 15 15 15 15 16 16 17
13 13 13 13 13 13 13 13 14 14 13 13 14 14 13 13 13 13 13 13 13 13 13 14 14 14 14 14 14 15 15 15 15 15 15 15 15 15 15 16 17 17 18
13 14 13 13 13 13 14 14 14 14 15 14 14 14 13 13 13 13 14 14 14 14 15 15 15 15 15 15 16 16 16 17 17 17 17 17 17 17 17 17 18 19 19
13 13 13 13 14 14 14 14 14 14 14 14 15 15 14 14 15 15 15 16 16 16 16 16 16 16 16 17 17 17 17 18 18 18 18 18 18 18 19 19 20 21 21
13 14 14 14 15 15 15 15 15 15 15 15 15 15 16 16 16 16 16 17 17 17 17 17 17 17 17 17 17 18 18 19 19 18 19 19 19 20 20 21 21 22 22
13 14 15 15 15 15 16 15 15 15 16 16 16 16 17 17 17 17 17 17 17 17 17 17 18 18 18 18 19 19 19 19 20 20 20 20 21 21 21 22 23 23 24
14 15 15 15 14 14 14 14 15 15 15 16 16 16 17 17 17 17 17 18 18 18 19 19 19 19 19 19 19 19 19 20 20 21 22 22 22 23 23 24 25 25 25
14 14 14 14 14 14 14 15 16 16 16 16 16 17 17 17 17 17 18 18 19 19 19 19 19 19 19 19 19 20 20 21 21 22 23 24 24 24 25 26 26 26 27
14 14 14 14 14 15 15 16 17 17 17 17 17 18 18 18 18 18 19 19 19 19 19 19 19 20 20 20 21 21 22 22 23 23 24 25 26 27 27 28 28 28 29
15 15 15 15 16 16 16 16 16 17 17 17 18 19 19 19 19 19 19 19 19 19 19 19 20 20 20 21 22 22 23 23 24 25 26 27 28 29 29 29 30 30 31
16 16 16 16 17 17 16 17 17 17 17 17 18 19 19 19 19 19 19 19 19 20 20 20 21 21 22 22 23 24 25 26 26 27 28 28 28 29 29 30 31 32 33
16 16 17 17 17 18 18 17 17 18 18 18 19 19 20 19 19 20 20 20 20 21 21 22 23 23 23 24 25 26 27 27 28 29 30 30 30 30 31 32 33 34 35
16 17 17 17 18 18 19 19 19 19 19 20 20 21 21 21 21 21 22 22 22 22 23 23 24 24 24 25 26 27 28 29 30 31 31 32 33 33 34 35 36 36 37
18 18 18 18 19 20 21 21 21 21 22 22 22 22 22 22 22 23 23 24 24 24 24 24 25 25 26 27 28 29 30 31 32 32 33 34 34 35 36 36 38 38 39
19 19 19 19 20 21 22 22 23 23 23 24 24 24 23 23 23 24 24 25 25 25 26 26 26 27 28 29 31 32 32 33 34 34 35 35 36 37 38 38 39 40 40
20 20 20 19 20 20 21 22 23 24 24 24 24 24 24 24 24 25 26 26 27 27 28 28 29 30 31 32 33 34 35 36 36 36 36 37 38 39 39 40 41 41 42

GEFSMW_500_meanwind_204.txt.gz
Wind_Speed
13 13 12 12 11 10 10 10 10 10 10 10 9 8 8 8 8 8 8 8 8 7 7 7 7 7 7 7 7 7 7 7 7 8 8 8 8 9 9 10 9 9 9
13 13 12 12 11 10 10 10 10 10 10 10 10 9 9 9 8 8 8 8 8 7 8 8 7 8 8 8 8 8 8 8 8 8 8 9 9 10 10 10 9 9 9
13 13 12 12 11 11 11 11 11 11 11 11 11 10 10 9 9 9 9 8 8 8 8 8 8 8 8 8 8 8 8 9 9 9 9 9 10 10 10 10 10 10 10
13 12 12 12 12 12 12 12 11 11 11 12 11 11 10 9 9 9 9 9 8 8 8 9 9 9 9 9 9 9 9 9 9 10 10 10 10 11 10 10 10 10 10
13 12 13 13 13 13 13 12 12 12 11 11 10 10 10 9 9 9 9 9 9 9 9 10 10 10 10 10 10 10 10 10 10 10 11 11 11 11 11 12 12 12 12
12 12 13 13 13 13 13 13 13 12 11 11 10 10 10 9 9 9 10 10 10 10 10 11 11 11 11 11 11 11 11 11 11 11 12 12 12 12 13 13 13 13 13
13 12 13 13 14 13 13 13 12 12 12 11 11 10 11 10 10 10 10 10 11 11 11 11 11 11 11 11 12 12 12 12 12 13 13 13 13 13 13 13 13 13 13
13 13 13 13 13 12 12 13 13 12 12 12 11 11 11 11 10 11 11 11 11 11 11 12 12 12 12 12 12 12 13 13 14 14 14 13 13 14 14 14 14 13 13
12 12 13 13 13 13 12 13 12 13 13 13 12 11 11 11 11 11 12 12 12 12 12 12 13 13 13 12 13 13 14 14 14 14 14 14 14 14 14 14 14 14 14
11 12 12 12 13 13 14 14 13 13 13 13 12 12 12 12 12 12 12 13 13 13 13 13 13 13 13 13 14 14 14 15 15 15 15 15 15 15 15 16 16 16 15
11 11 11 12 12 13 13 13 13 13 13 13 12 12 12 12 13 13 13 14 14 14 14 14 14 14 14 14 14 15 15 15 15 15 16 16 16 16 16 17 17 17 17
11 12 12 13 13 13 13 13 13 13 13 12 12 12 13 13 14 14 14 14 14 14 14 15 15 15 15 15 15 16 16 17 17 17 17 17 17 17 17 18 18 18 19
12 12 12 13 13 13 13 13 14 13 14 14 14 14 14 14 14 14 15 15 15 15 15 16 16 16 16 17 17 17 18 18 18 18 18 18 18 18 19 19 19 20 20
13 13 13 13 13 13 13 13 14 14 14 14 14 15 14 14 15 15 16 16 16 16 16 17 17 17 18 18 18 18 19 19 19 18 18 18 19 19 19 20 20 21 22
14 14 14 14 13 14 14 14 14 14 15 15 15 15 15 15 15 16 16 17 17 17 17 18 18 18 19 19 19 20 20 19 19 19 19 19 20 21 21 21 22 23 23
14 14 14 14 14 14 14 15 15 15 16 16 16 16 16 16 16 16 17 17 17 18 18 18 19 19 20 20 20 21 21 21 21 21 21 22 23 23 23 24 24 25 25
14 14 13 13 14 14 15 15 16 16 16 16 17 17 17 17 17 17 17 17 18 18 19 19 20 20 20 21 21 22 22 22 22 23 23 24 24 24 25 26 26 27 27
15 14 13 14 14 14 14 14 15 16 16 16 16 17 17 18 18 18 18 18 18 18 19 19 19 20 21 22 22 23 23 23 23 24 24 24 25 25 26 26 27 28 29
15 15 15 15 15 15 15 15 16 16 17 17 16 16 17 18 18 19 18 18 19 19 19 20 20 21 21 22 23 24 24 25 25 25 26 26 26 27 27 28 28 29 30
16 16 16 17 16 16 16 17 17 17 17 17 17 17 17 18 19 19 19 19 19 20 21 21 21 22 22 23 24 25 26 26 26 26 26 27 28 29 29 29 30 31 31
16 16 16 17 17 17 17 18 18 17 17 17 17 18 18 18 19 19 19 19 20 21 21 22 22 23 24 24 25 25 26 26 27 27 28 28 29 30 31 32 32 32 33
17 17 16 17 18 18 19 19 19 19 19 19 19 19 19 20 20 20 21 21 21 22 23 23 24 25 25 26 26 27 28 28 29 29 30 30 32 32 33 33 33 33 33
18 18 18 18 18 19 19 19 19 19 19 20 20 20 20 21 21 22 22 22 23 23 24 24 25 25 26 26 27 28 29 30 31 31 32 32 33 33 33 33 34 34 35
19 19 20 20 20 20 20 20 21 21 21 21 21 21 21 22 22 23 23 24 24 25 25 25 26 26 27 28 29 30 31 32 32 32 33 33 34 34 34 35 35 36 37
21 21 21 22 22 22 22 22 22 22 22 22 23 23 23 23 24 25 25 25 25 26 26 27 28 28 29 30 31 32 33 34 34 35 35 36 35 35 36 37 37 37 38
22 22 23 23 23 23 23 23 23 23 23 24 24 24 24 24 25 27 27 28 28 28 29 30 30 30 31 32 33 34 34 35 36 37 37 37 37 37 37 37 37 38 38

GEFSMW_500_meanwind_210.txt.gz
Wind_Speed
9 9 9 10 10 9 9 8 8 8 9 8 8 9 9 10 9 9 8 7 7 7 7 7 6 6 6 6 6 6 6 6 6 7 7 7 7 8 8 8 8 8 8
8 8 9 10 10 10 9 9 9 9 9 9 9 9 9 9 9 9 9 8 8 7 8 8 7 6 7 7 7 7 7 7 7 7 7 8 9 8 8 8 8 9 9
9 8 9 9 10 10 10 10 10 10 10 10 10 9 9 9 10 10 10 9 9 8 8 8 8 7 7 7 7 8 8 8 8 8 8 8 9 9 9 8 8 9 9
9 9 9 9 9 10 10 11 11 11 11 10 10 9 10 10 10 10 10 9 9 9 9 9 9 8 7 7 8 8 8 9 9 9 9 9 9 8 8 9 9 10 10
9 9 9 9 10 10 11 11 11 11 11 11 10 10 10 10 10 10 9 9 9 9 10 10 9 8 8 8 8 8 9 9 10 10 9 9 9 9 10 10 10 11 11
8 9 9 9 10 10 10 10 10 11 12 11 11 11 11 10 10 10 10 10 10 10 10 10 10 10 9 10 10 10 10 10 10 10 10 10 10 10 11 11 11 11 11
8 8 9 10 10 10 10 10 10 11 12 11 11 11 11 11 10 10 10 10 10 10 11 11 11 10 10 10 10 11 11 11 11 11 11 12 12 12 12 12 12 11 12
7 9 10 10 11 11 11 11 11 12 11 11 11 11 11 11 11 11 10 10 10 10 10 10 10 11 11 11 11 12 12 12 13 13 13 13 13 13 13 13 12 12 12
8 9 10 10 11 11 12 12 12 12 12 12 12 12 11 11 12 11 11 11 11 11 11 11 11 11 12 12 12 12 12 12 12 13 13 13 14 14 14 14 13 13 14
8 8 10 10 11 11 12 12 12 12 12 13 12 12 12 12 12 12 12 12 12 12 12 13 12 12 13 13 13 13 14 14 14 14 15 15 15 15 15 15 15 15 15
8 8 9 10 10 11 12 12 12 12 12 13 13 13 13 13 13 13 13 13 13 13 13 13 13 14 14 14 14 14 14 15 15 16 16 16 16 16 16 16 17 17 17
8 9 10 10 11 11 12 12 13 12 12 13 13 13 13 13 14 14 14 14 14 14 14 14 14 14 14 14 15 15 15 16 16 16 17 17 17 17 17 17 18 18 18
8 9 9 10 11 12 12 12 12 12 12 13 13 14 14 15 14 14 14 14 14 14 14 14 15 15 15 15 16 16 16 17 17 17 18 18 18 18 18 19 19 19 19
9 9 10 11 11 12 12 12 12 13 13 13 14 14 15 15 15 15 15 15 16 16 16 16 16 16 17 17 17 17 18 18 18 18 18 19 19 19 20 21 21 22 22
11 11 11 12 12 12 12 12 13 14 14 15 15 15 15 15 15 16 16 17 17 16 17 17 17 17 18 18 18 19 19 19 19 20 20 20 21 21 21 22 23 23 24
13 12 13 13 13 13 13 13 14 14 14 15 15 16 16 16 16 16 17 17 17 17 17 18 18 18 18 18 18 19 20 20 21 21 21 21 22 22 23 24 24 24 25
14 13 13 13 13 14 14 14 14 14 14 14 14 15 15 16 16 16 16 16 17 17 17 17 17 17 18 18 19 20 20 20 21 21 22 22 23 24 24 25 25 26 26
15 14 13 13 13 14 13 14 14 14 14 14 14 15 15 16 16 16 17 17 17 17 18 18 19 19 19 19 20 20 21 21 22 22 23 24 25 25 26 27 27 27 28
15 15 14 14 14 14 14 14 14 14 14 14 15 15 16 17 17 18 18 18 18 18 19 19 19 19 20 20 21 21 22 23 23 24 26 26 26 27 28 28 28 29 30
15 15 14 14 14 14 14 14 15 15 15 15 15 16 17 18 18 19 19 19 19 19 20 20 20 21 21 21 22 23 23 24 25 26 27 28 28 29 29 29 30 31 31
16 16 15 15 15 15 15 15 16 17 16 16 17 17 17 18 19 20 20 20 20 21 21 22 22 22 22 23 24 25 25 26 27 27 28 29 29 30 31 32 32 32 32
18 17 17 17 16 16 16 16 16 17 18 18 19 19 19 20 21 21 21 22 22 23 23 23 24 24 25 26 26 27 27 28 29 30 30 30 31 32 33 34 34 34 34
19 18 18 18 17 18 18 17 18 19 20 20 20 20 21 21 22 22 22 22 23 24 24 24 25 25 26 27 27 28 29 29 30 31 31 32 33 34 34 35 36 35 36
21 20 20 19 18 19 19 19 19 21 22 21 22 22 22 23 23 23 23 23 24 25 25 25 26 27 27 28 28 29 30 31 32 32 32 33 34 34 35 36 36 36 36
22 22 21 21 20 20 21 21 21 22 23 23 24 24 24 24 24 25 25 25 25 26 26 26 27 28 29 30 30 30 30 31 31 32 33 34 34 35 35 36 36 36 36
23 23 23 22 22 23 23 23 23 24 24 24 25 25 26 26 26 26 27 27 26 27 27 27 28 28 29 30 30 31 31 32 32 33 33 34 34 35 36 36 36 37 37